TimeMDT,TemperatureF,Dew PointF,Humidity,Sea Level PressureIn,VisibilityMPH,Wind Direction,Wind SpeedMPH,Gust SpeedMPH,PrecipitationIn,Events,Conditions,WindDirDegrees,DateUTC
12:15 AM,57.2,43.7,61,30.08,10.0,NNW,3.5,-,N/A,,Clear,340,2013-09-24 06:15:00
12:35 AM,57.7,42.8,57,30.08,10.0,NNE,3.5,-,N/A,,Clear,20,2013-09-24 06:35:00
12:55 AM,56.7,43.2,61,30.09,10.0,North,3.5,-,N/A,,Clear,350,2013-09-24 06:55:00
1:35 AM,57.9,41.4,54,30.09,10.0,NW,9.2,-,N/A,,Clear,320,2013-09-24 07:35:00
1:55 AM,60.8,39.9,46,30.10,10.0,North,9.2,-,N/A,,Clear,350,2013-09-24 07:55:00
2:15 AM,63.1,38.5,40,30.10,10.0,NNW,10.4,-,N/A,,Clear,340,2013-09-24 08:15:00
2:35 AM,62.2,39.0,42,30.11,10.0,NNW,9.2,-,N/A,,Clear,340,2013-09-24 08:35:00
2:55 AM,62.6,37.8,40,30.10,10.0,NNW,11.5,-,N/A,,Clear,340,2013-09-24 08:55:00
3:35 AM,61.9,36.5,39,30.11,10.0,NNW,11.5,-,N/A,,Clear,340,2013-09-24 09:35:00
3:55 AM,60.8,36.5,40,30.11,10.0,NNW,10.4,-,N/A,,Clear,340,2013-09-24 09:55:00
4:15 AM,60.8,35.8,39,30.11,10.0,NNW,10.4,-,N/A,,Clear,340,2013-09-24 10:15:00
4:35 AM,61.2,33.8,36,30.12,10.0,NNW,10.4,-,N/A,,Clear,340,2013-09-24 10:35:00
4:55 AM,61.5,33.4,35,30.12,10.0,North,12.7,-,N/A,,Clear,350,2013-09-24 10:55:00
5:15 AM,62.6,33.1,33,30.12,10.0,NNW,10.4,-,N/A,,Clear,340,2013-09-24 11:15:00
5:35 AM,62.6,33.4,34,30.12,10.0,North,12.7,17.3,N/A,,Clear,350,2013-09-24 11:35:00
5:55 AM,61.5,34.0,36,30.13,10.0,North,11.5,-,N/A,,Clear,350,2013-09-24 11:55:00
6:15 AM,61.5,33.8,35,30.14,10.0,North,9.2,-,N/A,,Clear,360,2013-09-24 12:15:00
6:35 AM,61.0,34.3,37,30.14,10.0,NNE,4.6,-,N/A,,Clear,20,2013-09-24 12:35:00
6:55 AM,58.6,35.4,42,30.15,10.0,NNE,4.6,-,N/A,,Clear,20,2013-09-24 12:55:00
7:15 AM,60.1,35.4,40,30.16,10.0,North,8.1,-,N/A,,Clear,360,2013-09-24 13:15:00
7:35 AM,60.8,36.1,40,30.16,10.0,NNW,8.1,-,N/A,,Clear,340,2013-09-24 13:35:00
7:55 AM,62.4,37.0,39,30.17,10.0,NNW,6.9,-,N/A,,Clear,340,2013-09-24 13:55:00
8:15 AM,64.6,37.2,36,30.17,10.0,NNW,6.9,-,N/A,,Clear,330,2013-09-24 14:15:00
8:35 AM,65.8,35.8,33,30.18,10.0,NNW,10.4,-,N/A,,Clear,340,2013-09-24 14:35:00
8:55 AM,66.9,35.6,31,30.18,10.0,NNW,12.7,17.3,N/A,,Clear,340,2013-09-24 14:55:00
9:15 AM,68.2,36.1,31,30.18,10.0,North,11.5,-,N/A,,Clear,350,2013-09-24 15:15:00
9:35 AM,70.0,36.1,29,30.19,10.0,North,10.4,-,N/A,,Clear,350,2013-09-24 15:35:00
9:55 AM,71.2,37.0,29,30.19,10.0,NNW,8.1,-,N/A,,Clear,340,2013-09-24 15:55:00
10:15 AM,72.5,37.4,28,30.20,10.0,North,5.8,-,N/A,,Clear,350,2013-09-24 16:15:00
10:35 AM,73.8,38.1,27,30.20,10.0,NNE,5.8,-,N/A,,Clear,30,2013-09-24 16:35:00
10:55 AM,75.0,36.9,25,30.20,10.0,NNE,4.6,-,N/A,,Clear,30,2013-09-24 16:55:00
11:15 AM,75.9,34.9,22,30.20,10.0,ENE,5.8,-,N/A,,Clear,70,2013-09-24 17:15:00
11:55 AM,77.2,36.3,23,30.19,10.0,NE,5.8,-,N/A,,Clear,50,2013-09-24 17:55:00
12:15 PM,77.7,34.7,21,30.18,10.0,NE,4.6,-,N/A,,Clear,40,2013-09-24 18:15:00
12:35 PM,78.4,35.6,21,30.18,10.0,ENE,4.6,-,N/A,,Clear,70,2013-09-24 18:35:00
12:55 PM,79.0,35.1,20,30.17,10.0,ESE,3.5,-,N/A,,Clear,110,2013-09-24 18:55:00
1:15 PM,79.5,34.0,19,30.16,10.0,Calm,Calm,-,N/A,,Clear,0,2013-09-24 19:15:00
1:35 PM,78.8,33.6,19,30.15,10.0,Calm,Calm,-,N/A,,Clear,0,2013-09-24 19:35:00
1:55 PM,80.4,34.9,19,30.14,10.0,SE,5.8,-,N/A,,Clear,130,2013-09-24 19:55:00
2:15 PM,80.1,33.4,19,30.12,10.0,Calm,Calm,-,N/A,,Clear,0,2013-09-24 20:15:00
2:35 PM,82.0,35.6,19,30.12,10.0,ESE,4.6,-,N/A,,Clear,110,2013-09-24 20:35:00
2:55 PM,81.5,34.9,19,30.11,10.0,Calm,Calm,-,N/A,,Clear,0,2013-09-24 20:55:00
3:15 PM,81.0,34.5,19,30.10,10.0,Calm,Calm,-,N/A,,Clear,0,2013-09-24 21:15:00
3:35 PM,82.2,35.2,19,30.09,10.0,Calm,Calm,-,N/A,,Clear,0,2013-09-24 21:35:00
3:55 PM,82.6,36.0,19,30.08,10.0,South,4.6,-,N/A,,Clear,170,2013-09-24 21:55:00
4:15 PM,82.4,35.6,19,30.08,10.0,SE,4.6,-,N/A,,Clear,130,2013-09-24 22:15:00
4:35 PM,81.9,35.6,19,30.08,10.0,East,3.5,-,N/A,,Clear,100,2013-09-24 22:35:00
4:55 PM,81.9,36.0,19,30.07,10.0,Calm,Calm,-,N/A,,Clear,0,2013-09-24 22:55:00
5:15 PM,81.5,36.5,20,30.07,10.0,East,4.6,-,N/A,,Clear,100,2013-09-24 23:15:00
5:35 PM,81.5,36.0,19,30.07,10.0,SE,4.6,-,N/A,,Clear,130,2013-09-24 23:35:00
5:55 PM,80.6,35.8,20,30.07,10.0,East,5.8,-,N/A,,Clear,100,2013-09-24 23:55:00
6:15 PM,79.7,36.3,21,30.07,10.0,East,6.9,-,N/A,,Clear,100,2013-09-25 00:15:00
6:35 PM,77.7,37.4,23,30.07,10.0,East,3.5,-,N/A,,Clear,90,2013-09-25 00:35:00
6:55 PM,75.0,39.7,28,30.07,10.0,East,3.5,-,N/A,,Clear,100,2013-09-25 00:55:00
7:15 PM,73.6,37.8,27,30.07,10.0,SE,3.5,-,N/A,,Clear,130,2013-09-25 01:15:00
7:35 PM,71.4,37.9,30,30.06,10.0,SE,5.8,-,N/A,,Clear,130,2013-09-25 01:35:00
7:55 PM,70.3,38.7,31,30.07,10.0,SE,5.8,-,N/A,,Clear,140,2013-09-25 01:55:00
8:15 PM,70.7,38.3,31,30.07,10.0,SSE,4.6,-,N/A,,Clear,150,2013-09-25 02:15:00
8:35 PM,69.8,37.4,31,30.08,10.0,SSE,5.8,-,N/A,,Clear,150,2013-09-25 02:35:00
8:55 PM,69.8,36.9,30,30.08,10.0,SSE,5.8,-,N/A,,Clear,150,2013-09-25 02:55:00
9:15 PM,69.8,36.5,29,30.08,10.0,SE,4.6,-,N/A,,Clear,140,2013-09-25 03:15:00
9:35 PM,67.6,36.9,32,30.08,10.0,SE,4.6,-,N/A,,Clear,140,2013-09-25 03:35:00
9:55 PM,67.5,36.9,32,30.08,10.0,ESE,4.6,-,N/A,,Clear,120,2013-09-25 03:55:00
10:15 PM,66.7,37.0,33,30.07,10.0,ESE,3.5,-,N/A,,Clear,110,2013-09-25 04:15:00
10:35 PM,66.2,36.7,34,30.07,10.0,ESE,3.5,-,N/A,,Clear,110,2013-09-25 04:35:00
10:55 PM,66.2,36.7,34,30.07,10.0,East,3.5,-,N/A,,Clear,100,2013-09-25 04:55:00
11:15 PM,64.0,39.0,40,30.07,10.0,East,3.5,-,N/A,,Clear,100,2013-09-25 05:15:00
11:35 PM,65.3,37.2,35,30.06,10.0,ESE,3.5,-,N/A,,Clear,110,2013-09-25 05:35:00
11:55 PM,62.4,39.0,42,30.05,10.0,ESE,3.5,-,N/A,,Clear,110,2013-09-25 05:55:00